EW8308 Weather Reports


Display with metric or nautical units.
time (UTC)temp
F
wind
direction
speed
MPH
gust
MPH
rain 1hr
in
rain 24hr
in
rain mn
in
humidity
%
barometer
mb
20220624222624 66 177 2.0 7.0 0.00 0.00 0.00 43 1021.9
20220624222122 67 113 2.0 14.0 0.00 0.00 0.00 43 1021.9
20220624221622 67 124 3.0 14.0 0.00 0.00 0.00 46 1021.9
20220624221123 67 311 4.0 12.0 0.00 0.00 0.00 42 1021.9
20220624220622 68 138 4.0 14.0 0.00 0.00 0.00 40 1021.8
20220624220122 68 98 4.0 14.0 0.00 0.00 0.00 44 1021.8
20220624215620 67 6 4.0 16.0 0.00 0.00 0.00 42 1021.8
20220624215120 67 212 4.0 16.0 0.00 0.00 0.00 41 1021.8
20220624214622 66 131 3.0 11.0 0.00 0.00 0.00 43 1021.7
20220624214120 66 124 4.0 12.0 0.00 0.00 0.00 41 1021.8
20220624213620 66 119 4.0 13.0 0.00 0.00 0.00 40 1021.7
20220624213119 67 110 2.0 13.0 0.00 0.00 0.00 42 1021.6
20220624212620 66 98 2.0 8.0 0.00 0.00 0.00 43 1021.7
20220624212121 67 113 2.0 8.0 0.00 0.00 0.00 44 1021.8
20220624211621 66 176 3.0 10.0 0.00 0.00 0.00 46 1021.8
20220624211120 66 89 3.0 10.0 0.00 0.00 0.00 41 1021.7
20220624210620 66 110 3.0 10.0 0.00 0.00 0.00 43 1021.8
20220624210121 67 98 3.0 10.0 0.00 0.00 0.00 42 1021.7
20220624205621 66 101 3.0 10.0 0.00 0.00 0.00 44 1021.8
20220624205121 66 94 3.0 9.0 0.00 0.00 0.00 46 1021.7
20220624204621 66 99 3.0 10.0 0.00 0.00 0.00 44 1021.7
20220624204121 66 101 3.0 10.0 0.00 0.00 0.00 44 1021.7
20220624203620 66 150 3.0 9.0 0.00 0.00 0.00 42 1021.7
20220624203120 65 123 3.0 10.0 0.00 0.00 0.00 42 1021.7
20220624202621 66 114 4.0 11.0 0.00 0.00 0.00 43 1021.7
20220624202121 66 125 4.0 12.0 0.00 0.00 0.00 43 1021.5
20220624201619 65 128 5.0 12.0 0.00 0.00 0.00 45 1021.5
20220624201118 65 65 4.0 11.0 0.00 0.00 0.00 43 1021.5
20220624200618 65 65 3.0 11.0 0.00 0.00 0.00 42 1021.5
20220624200117 65 100 3.0 10.0 0.00 0.00 0.00 46 1021.5
20220624195616 65 162 4.0 13.0 0.00 0.00 0.00 40 1021.4
20220624195116 65 110 4.0 13.0 0.00 0.00 0.00 42 1021.5
20220624194619 65 111 4.0 12.0 0.00 0.00 0.00 42 1021.4
20220624194121 65 153 4.0 11.0 0.00 0.00 0.00 42 1021.5
20220624193622 65 63 5.0 13.0 0.00 0.00 0.00 46 1021.4
20220624193116 64 81 5.0 13.0 0.00 0.00 0.00 44 1021.4
20220624192617 65 84 5.0 12.0 0.00 0.00 0.00 46 1021.4
20220624192115 65 83 5.0 12.0 0.00 0.00 0.00 44 1021.4
20220624191613 65 83 4.0 11.0 0.00 0.00 0.00 43 1021.3
20220624191115 65 113 3.0 12.0 0.00 0.00 0.00 45 1021.3
20220624190612 65 116 4.0 12.0 0.00 0.00 0.00 44 1021.2
20220624190111 64 94 4.0 11.0 0.00 0.00 0.00 43 1021.2
20220624185613 64 116 4.0 11.0 0.00 0.00 0.00 50 1021.2
20220624185114 64 91 5.0 13.0 0.00 0.00 0.00 45 1021.0
20220624184613 64 91 5.0 13.0 0.00 0.00 0.00 48 1021.0
20220624184111 64 116 4.0 10.0 0.00 0.00 0.00 47 1020.9
20220624183613 64 106 3.0 13.0 0.00 0.00 0.00 49 1020.9
20220624183114 64 120 4.0 13.0 0.00 0.00 0.00 48 1020.8
20220624182608 64 120 5.0 13.0 0.00 0.00 0.00 48 1020.7
20220624182112 64 68 5.0 13.0 0.00 0.00 0.00 50 1020.7
20220624181607 63 86 5.0 9.0 0.00 0.00 0.00 57 1020.7
20220624181106 63 38 4.0 10.0 0.00 0.00 0.00 54 1020.6
20220624180605 63 84 4.0 10.0 0.00 0.00 0.00 55 1020.6
20220624180106 62 91 4.0 10.0 0.00 0.00 0.00 53 1020.6
20220624175603 62 122 3.0 10.0 0.00 0.00 0.00 57 1020.6
20220624175104 62 103 3.0 10.0 0.00 0.00 0.00 53 1020.5
20220624174604 62 92 4.0 10.0 0.00 0.00 0.00 52 1020.5
20220624174103 62 99 4.0 14.0 0.00 0.00 0.00 54 1020.5
20220624173604 61 44 5.0 14.0 0.00 0.00 0.00 54 1020.4
20220624173103 62 83 4.0 8.0 0.00 0.00 0.00 53 1020.4
20220624172604 62 67 3.0 8.0 0.00 0.00 0.00 52 1020.3
20220624172105 61 93 4.0 9.0 0.00 0.00 0.00 55 1020.3
20220624171605 60 48 5.0 10.0 0.00 0.00 0.00 57 1020.4
20220624171104 60 78 5.0 10.0 0.00 0.00 0.00 52 1020.3
20220624170604 60 75 4.0 9.0 0.00 0.00 0.00 54 1020.3
20220624170103 61 59 4.0 8.0 0.00 0.00 0.00 56 1020.2
20220624165605 60 77 4.0 8.0 0.00 0.00 0.00 58 1020.2
20220624165103 60 66 3.0 8.0 0.00 0.00 0.00 56 1020.2
20220624164604 60 56 2.0 6.0 0.00 0.00 0.00 60 1020.1
20220624164104 60 104 3.0 8.0 0.00 0.00 0.00 57 1020.1
20220624163603 60 86 4.0 8.0 0.00 0.00 0.00 60 1020.1
20220624163103 60 37 3.0 9.0 0.00 0.00 0.00 59 1020.1
20220624162603 59 38 3.0 9.0 0.00 0.00 0.00 56 1020.0
20220624162105 59 96 3.0 8.0 0.00 0.00 0.00 60 1019.9
20220624161605 59 79 4.0 8.0 0.00 0.00 0.00 57 1019.7
20220624161104 59 21 3.0 7.0 0.00 0.00 0.00 60 1019.7
20220624160602 59 46 3.0 6.0 0.00 0.00 0.00 60 1019.7
20220624160104 58 10 2.0 6.0 0.00 0.00 0.00 59 1019.7
20220624155559 58 38 2.0 5.0 0.00 0.00 0.00 56 1019.9
20220624155059 57 72 1.0 4.0 0.00 0.00 0.00 57 1019.9
20220624154600 57 13 2.0 6.0 0.00 0.00 0.00 59 1019.9
20220624154102 56 41 2.0 6.0 0.00 0.00 0.00 59 1019.9
20220624153559 56 74 3.0 6.0 0.00 0.00 0.00 58 1019.7
20220624153059 56 18 3.0 7.0 0.00 0.00 0.00 61 1019.6
20220624152557 56 68 3.0 7.0 0.00 0.00 0.00 62 1019.5
20220624152058 56 72 2.0 8.0 0.00 0.00 0.00 63 1019.5
20220624151557 57 55 1.0 8.0 0.00 0.00 0.00 61 1019.4
20220624151057 56 72 2.0 10.0 0.00 0.00 0.00 60 1019.3
20220624150557 56 99 2.0 10.0 0.00 0.00 0.00 58 1019.2
20220624150057 57 75 1.0 6.0 0.00 0.00 0.00 58 1019.0
20220624145558 56 78 0.0 2.0 0.00 0.00 0.00 61 1018.8
20220624145057 55 112 0.0 3.0 0.00 0.00 0.00 55 1018.4
20220624144557 55 174 1.0 3.0 0.00 0.00 0.00 59 1018.2
20220624144057 54 147 2.0 4.0 0.00 0.00 0.00 60 1018.1
20220624143555 54 277 4.0 14.0 0.00 0.00 0.00 55 1018.1
20220624143057 53 253 4.0 14.0 0.00 0.00 0.00 55 1018.0
20220624142556 50 258 1.0 9.0 0.00 0.00 0.00 64 1018.2
20220624142055 48 192 0.0 3.0 0.00 0.00 0.00 77 1018.3
20220624141555 48 124 0.0 2.0 0.00 0.00 0.00 76 1018.8
20220624141057 47 122 0.0 2.0 0.00 0.00 0.00 80 1018.7
20220624140556 47 169 0.0 1.0 0.00 0.00 0.00 78 1018.4
20220624140055 47 169 0.0 1.0 0.00 0.00 0.00 79 1018.3
20220624135556 47 88 0.0 1.0 0.00 0.00 0.00 80 1018.1
20220624135056 46 88 0.0 1.0 0.00 0.00 0.00 80 1018.1
20220624134553 46 63 0.0 1.0 0.00 0.00 0.00 77 1018.0
20220624134053 46 160 0.0 1.0 0.00 0.00 0.00 77 1018.3
20220624133551 46 192 0.0 1.0 0.00 0.00 0.00 78 1018.3
20220624133050 46 154 0.0 0.0 0.00 0.00 0.00 78 1018.4
20220624132551 46 136 0.0 0.0 0.00 0.00 0.00 79 1018.0
20220624132052 46 136 0.0 0.0 0.00 0.00 0.00 82 1018.0
20220624131548 45 159 0.0 0.0 0.00 0.00 0.00 77 1017.9
20220624131046 45 164 0.0 0.0 0.00 0.00 0.00 78 1017.9
20220624130547 45 165 0.0 0.0 0.00 0.00 0.00 79 1017.8
20220624130044 44 40 0.0 0.0 0.00 0.00 0.00 79 1017.8
20220624125543 44 173 0.0 0.0 0.00 0.00 0.00 79 1017.7
20220624125038 44 173 0.0 0.0 0.00 0.00 0.00 80 1017.6
20220624124537 44 173 0.0 0.0 0.00 0.00 0.00 79 1017.5
20220624124035 44 173 0.0 0.0 0.00 0.00 0.00 78 1017.5
20220624123533 44 173 0.0 0.0 0.00 0.00 0.00 78 1017.3
20220624123033 44 173 0.0 1.0 0.00 0.00 0.00 78 1017.1
20220624122532 44 173 0.0 2.0 0.00 0.00 0.00 78 1017.0
20220624122031 44 202 1.0 4.0 0.00 0.00 0.00 78 1016.9
20220624121530 43 326 2.0 4.0 0.00 0.00 0.00 78 1016.9
20220624121026 44 330 1.0 3.0 0.00 0.00 0.00 76 1016.8
20220624120530 44 342 0.0 2.0 0.00 0.00 0.00 74 1016.9
20220624120025 44 335 0.0 1.0 0.00 0.00 0.00 75 1016.8
20220624115522 44 155 0.0 1.0 0.00 0.00 0.00 73 1016.8
20220624115022 44 184 0.0 1.0 0.00 0.00 0.00 74 1016.7
20220624114523 43 350 0.0 0.0 0.00 0.00 0.00 75 1016.6
20220624114022 43 32 0.0 0.0 0.00 0.00 0.00 78 1016.5
20220624113521 43 32 0.0 0.0 0.00 0.00 0.00 78 1016.5
20220624113021 44 31 0.0 0.0 0.00 0.00 0.00 75 1016.4
20220624112519 44 32 0.0 0.0 0.00 0.00 0.00 73 1016.4
20220624112018 44 32 0.0 0.0 0.00 0.00 0.00 73 1016.2
20220624111517 44 32 0.0 0.0 0.00 0.00 0.00 73 1016.1
20220624111018 44 32 0.0 0.0 0.00 0.00 0.00 74 1016.0
20220624110519 44 32 0.0 1.0 0.00 0.00 0.00 75 1016.0
20220624110017 44 36 0.0 1.0 0.00 0.00 0.00 77 1015.8
20220624105516 44 96 0.0 1.0 0.00 0.00 0.00 76 1016.0
20220624105016 42 98 0.0 2.0 0.00 0.00 0.00 77 1016.0
20220624104515 43 98 1.0 2.0 0.00 0.00 0.00 78 1016.0
20220624104012 44 317 1.0 2.0 0.00 0.00 0.00 77 1015.8
20220624103510 44 328 0.0 2.0 0.00 0.00 0.00 72 1015.8
20220624103007 44 328 0.0 2.0 0.00 0.00 0.00 74 1015.8
20220624102508 45 344 0.0 0.0 0.00 0.00 0.00 71 1015.7
20220624102009 45 200 0.0 0.0 0.00 0.00 0.00 71 1016.0
20220624101508 45 199 0.0 0.0 0.00 0.00 0.00 70 1015.8
20220624101008 45 199 0.0 1.0 0.00 0.00 0.00 69 1016.0
20220624100508 46 200 0.0 2.0 0.00 0.00 0.00 69 1015.8
20220624100008 46 172 0.0 2.0 0.00 0.00 0.00 69 1015.8
20220624095507 46 184 0.0 2.0 0.00 0.00 0.00 68 1015.7
20220624095007 46 200 0.0 1.0 0.00 0.00 0.00 68 1015.6
20220624094508 45 312 0.0 1.0 0.00 0.00 0.00 72 1015.7
20220624094005 46 298 1.0 2.0 0.00 0.00 0.00 70 1015.7
20220624093506 45 309 1.0 2.0 0.00 0.00 0.00 72 1015.8
20220624093005 45 316 0.0 1.0 0.00 0.00 0.00 72 1016.1
20220624092503 46 323 0.0 0.0 0.00 0.00 0.00 70 1016.0
20220624092002 45 334 0.0 0.0 0.00 0.00 0.00 71 1016.1
20220624091504 45 334 0.0 0.0 0.00 0.00 0.00 73 1016.1
20220624091004 45 335 0.0 0.0 0.00 0.00 0.00 70 1016.1
20220624090503 45 335 0.0 0.0 0.00 0.00 0.00 70 1016.1
20220624090002 45 335 0.0 0.0 0.00 0.00 0.00 72 1016.0
20220624085500 44 334 0.0 0.0 0.00 0.00 0.00 75 1016.0
20220624085000 44 20 0.0 1.0 0.00 0.00 0.00 76 1015.8
20220624084459 45 21 0.0 1.0 0.00 0.00 0.00 74 1016.0
20220624083958 46 314 0.0 1.0 0.00 0.00 0.00 74 1016.0
20220624083459 45 314 0.0 1.0 0.00 0.00 0.00 74 1016.0
20220624082957 46 302 0.0 1.0 0.00 0.00 0.00 73 1015.8
20220624082459 46 298 0.0 1.0 0.00 0.00 0.00 69 1015.7
20220624081954 46 291 0.0 0.0 0.00 0.00 0.00 69 1015.7
20220624081457 46 291 0.0 1.0 0.00 0.00 0.00 71 1015.7
20220624080955 47 291 0.0 1.0 0.00 0.00 0.00 71 1015.7
20220624080452 47 290 0.0 1.0 0.00 0.00 0.00 67 1015.7
20220624075957 47 311 0.0 1.0 0.00 0.00 0.00 69 1015.7
20220624075454 49 319 0.0 0.0 0.00 0.00 0.00 65 1015.7
20220624074954 49 265 0.0 1.0 0.00 0.00 0.00 60 1015.6
20220624074451 49 265 0.0 2.0 0.00 0.00 0.00 61 1015.7
20220624073951 49 283 0.0 2.0 0.00 0.00 0.00 63 1015.6
20220624073447 49 281 0.0 0.0 0.00 0.00 0.00 62 1015.6
20220624072945 49 281 0.0 0.0 0.00 0.00 0.00 62 1015.6
20220624072446 49 281 0.0 0.0 0.00 0.00 0.00 63 1015.7
20220624071942 48 282 0.0 0.0 0.00 0.00 0.00 65 1015.7
20220624071441 48 276 0.0 0.0 0.00 0.00 0.00 66 1015.7
20220624070940 49 276 0.0 1.0 0.00 0.00 0.00 66 1015.7
20220624070439 50 276 1.0 4.0 0.00 0.00 0.00 63 1015.7
20220624065938 52 276 1.0 4.0 0.00 0.00 0.00 58 1015.8
20220624065439 51 283 1.0 3.0 0.00 0.00 0.00 56 1015.8
20220624064938 51 269 1.0 4.0 0.00 0.00 0.00 57 1016.0
20220624064443 49 284 1.0 4.0 0.00 0.00 0.00 61 1016.0
20220624063948 48 279 0.0 1.0 0.00 0.00 0.00 65 1016.0
20220624063435 48 313 0.0 0.0 0.00 0.00 0.00 68 1016.0
20220624062935 49 313 0.0 0.0 0.00 0.00 0.00 66 1016.0
20220624062435 49 312 0.0 1.0 0.00 0.00 0.00 64 1016.0
20220624061936 49 312 0.0 1.0 0.00 0.00 0.00 64 1016.0
20220624061433 49 314 1.0 2.0 0.00 0.00 0.00 65 1016.0
20220624060929 49 316 2.0 3.0 0.00 0.00 0.00 66 1015.8
20220624060428 49 312 2.0 3.0 0.00 0.00 0.00 68 1016.0
20220624055926 49 313 2.0 3.0 0.00 0.00 0.00 66 1016.1
20220624055424 49 319 2.0 3.0 0.00 0.00 0.00 66 1016.1
20220624054923 50 328 1.0 3.0 0.00 0.00 0.00 64 1016.1
20220624054424 51 290 0.0 1.0 0.00 0.00 0.00 61 1016.1
20220624053922 49 289 0.0 1.0 0.00 0.00 0.00 63 1016.1
20220624053421 50 329 1.0 2.0 0.00 0.00 0.00 66 1016.1
20220624052921 50 330 1.0 2.0 0.00 0.00 0.00 64 1016.1
20220624052420 51 327 2.0 3.0 0.00 0.00 0.00 64 1016.1
20220624051922 51 316 2.0 3.0 0.00 0.00 0.00 63 1016.0
20220624051423 51 322 1.0 2.0 0.00 0.00 0.00 64 1016.1
20220624050918 51 312 2.0 3.0 0.00 0.00 0.00 65 1016.0
20220624050420 51 319 2.0 3.0 0.00 0.00 0.00 64 1016.1
20220624045919 51 316 2.0 3.0 0.00 0.00 0.00 65 1016.0
20220624045418 51 327 2.0 3.0 0.00 0.00 0.00 64 1016.1
20220624044920 52 323 1.0 2.0 0.00 0.00 0.00 64 1016.0
20220624044418 52 322 1.0 2.0 0.00 0.00 0.00 64 1016.0
20220624043917 52 317 1.0 2.0 0.00 0.00 0.00 65 1016.0
20220624043417 52 308 2.0 3.0 0.00 0.00 0.00 66 1015.8
20220624042918 52 318 2.0 3.0 0.00 0.00 0.00 65 1015.8
20220624042417 52 326 2.0 3.0 0.00 0.00 0.00 65 1015.8
20220624041916 53 316 1.0 3.0 0.00 0.00 0.00 65 1015.7
20220624041422 53 313 1.0 2.0 0.00 0.00 0.00 63 1015.7
20220624040918 53 311 2.0 3.0 0.00 0.00 0.00 62 1015.6
20220624040417 54 314 3.0 3.0 0.00 0.00 0.00 62 1015.5
20220624035916 55 316 3.0 3.0 0.00 0.00 0.00 59 1015.6
20220624035414 56 320 2.0 3.0 0.00 0.00 0.00 60 1015.5
20220624034913 56 318 2.0 3.0 0.00 0.00 0.00 57 1015.6
20220624034410 57 313 2.0 3.0 0.00 0.00 0.00 56 1015.5
20220624033911 59 312 1.0 3.0 0.00 0.00 0.00 56 1015.5
20220624033410 61 316 1.0 2.0 0.00 0.00 0.00 50 1015.5
20220624032912 63 316 0.0 1.0 0.00 0.00 0.00 43 1015.4
20220624032417 64 191 0.0 0.0 0.00 0.00 0.00 35 1015.5
20220624031911 64 191 0.0 2.0 0.00 0.00 0.00 34 1015.5
20220624031411 65 192 0.0 2.0 0.00 0.00 0.00 35 1015.5
20220624030911 65 167 0.0 2.0 0.00 0.00 0.00 33 1015.5
20220624030411 66 174 0.0 2.0 0.00 0.00 0.00 32 1015.5
20220624025908 67 155 0.0 2.0 0.00 0.00 0.00 31 1015.6
20220624025408 67 157 0.0 5.0 0.00 0.00 0.00 31 1015.6
20220624024907 68 142 0.0 5.0 0.00 0.00 0.00 30 1015.6
20220624024404 68 147 0.0 3.0 0.00 0.00 0.00 31 1015.6
20220624023903 68 171 0.0 3.0 0.00 0.00 0.00 31 1015.6
20220624023402 68 159 0.0 3.0 0.00 0.00 0.00 32 1015.6
20220624022902 68 91 0.0 4.0 0.00 0.00 0.00 33 1015.5
20220624022407 68 202 0.0 4.0 0.00 0.00 0.00 33 1015.6
20220624021903 68 194 1.0 5.0 0.00 0.00 0.00 32 1015.6
20220624021405 68 129 1.0 5.0 0.00 0.00 0.00 33 1015.5
20220624020902 68 176 1.0 5.0 0.00 0.00 0.00 32 1015.5
20220624020403 68 165 1.0 7.0 0.00 0.00 0.00 33 1015.5
20220624015903 68 121 2.0 7.0 0.00 0.00 0.00 31 1015.5
20220624015402 68 158 2.0 7.0 0.00 0.00 0.00 32 1015.5
20220624014902 68 210 2.0 7.0 0.00 0.00 0.00 32 1015.4
20220624014404 69 171 1.0 5.0 0.00 0.00 0.00 31 1015.5
20220624013901 69 125 1.0 6.0 0.00 0.00 0.00 31 1015.4
20220624013359 69 133 2.0 7.0 0.00 0.00 0.00 33 1015.5
20220624012859 69 192 1.0 10.0 0.00 0.00 0.00 33 1015.4
20220624012400 69 122 1.0 10.0 0.00 0.00 0.00 30 1015.4
20220624011859 69 148 2.0 6.0 0.00 0.00 0.00 31 1015.5
20220624011356 69 176 3.0 9.0 0.00 0.00 0.00 33 1015.5
20220624010857 70 199 2.0 9.0 0.00 0.00 0.00 31 1015.6
20220624010358 70 88 1.0 4.0 0.00 0.00 0.00 34 1015.5
20220624005855 70 148 1.0 5.0 0.00 0.00 0.00 32 1015.6
20220624005354 70 143 1.0 6.0 0.00 0.00 0.00 38 1015.6
20220624004854 70 112 2.0 9.0 0.00 0.00 0.00 39 1015.6
20220624004350 70 124 3.0 9.0 0.00 0.00 0.00 35 1015.6
20220624003853 70 125 2.0 7.0 0.00 0.00 0.00 35 1015.6
20220624003352 70 143 2.0 10.0 0.00 0.00 0.00 37 1015.7
20220624002857 70 108 2.0 10.0 0.00 0.00 0.00 41 1015.6
20220624002355 70 123 2.0 6.0 0.00 0.00 0.00 39 1015.8
20220624001849 70 89 2.0 6.0 0.00 0.00 0.00 40 1015.8
20220624001348 70 94 2.0 8.0 0.00 0.00 0.00 37 1015.8
20220624000849 70 136 4.0 15.0 0.00 0.00 0.00 40 1016.0
20220624000347 70 116 3.0 15.0 0.00 0.00 0.00 42 1015.8
20220623235846 70 84 2.0 9.0 0.00 0.00 0.00 43 1015.8
20220623235347 70 144 3.0 9.0 0.00 0.00 0.00 40 1015.8
20220623234844 70 202 2.0 7.0 0.00 0.00 0.00 44 1015.8
20220623234344 70 112 2.0 10.0 0.00 0.00 0.00 43 1016.0
20220623233845 70 103 3.0 10.0 0.00 0.00 0.00 42 1016.0
20220623233341 70 127 2.0 8.0 0.00 0.00 0.00 40 1016.0
20220623232839 70 116 2.0 7.0 0.00 0.00 0.00 44 1016.0
20220623232341 70 103 2.0 7.0 0.00 0.00 0.00 41 1016.1
20220623231838 70 163 2.0 7.0 0.00 0.00 0.00 42 1016.1
20220623231340 70 96 2.0 8.0 0.00 0.00 0.00 44 1016.1
20220623230841 70 79 3.0 12.0 0.00 0.00 0.00 44 1016.1
20220623230340 69 87 3.0 12.0 0.00 0.00 0.00 45 1016.1
20220623225837 69 134 2.0 7.0 0.00 0.00 0.00 42 1016.1
20220623225337 69 101 3.0 9.0 0.00 0.00 0.00 43 1016.2
20220623224836 69 117 4.0 12.0 0.00 0.00 0.00 43 1016.3
20220623224337 69 165 3.0 12.0 0.00 0.00 0.00 45 1016.3
20220623223838 69 110 2.0 13.0 0.00 0.00 0.00 45 1016.4
20220623223334 69 135 2.0 13.0 0.00 0.00 0.00 46 1016.4
20220623222835 69 94 2.0 10.0 0.00 0.00 0.00 48 1016.4